Regional Weather Roundup
Issued by NWS

Home | Current Version | Previous Version | Graphics & Text | Print | Product List | Glossary On
Versions: 1 2 3 4 5 6 7 8 9 10 11 12 13 14 15 16 17 18 19 20 21 22 23 24 25 26 27 28 29 30 31 32 33 34 35 36 37 38 39 40 41 42 43 44 45 46 47 48 49 50
000
ASUS43 KMPX 230910
RWRMN
WEATHER ROUNDUP FOR MINNESOTA
NATIONAL WEATHER SERVICE TWIN CITIES/CHANHASSEN MN
400 AM CDT THU MAR 23 2017


NOTE: "FAIR" INDICATES FEW OR NO CLOUDS BELOW 12,000 FEET WITH NO
SIGNIFICANT WEATHER AND/OR OBSTRUCTIONS TO VISIBILITY. N/A MEANS
CURRENT SKY AND/OR WEATHER CONDITIONS ARE NOT AVAILABLE.

MNZ060>063-068>070-231000-
   Twin Cities Metro

CITY           SKY/WX    TMP DP  RH WIND       PRES   REMARKS
TWIN CITIES    CLOUDY    37  20  50 SE18      30.22F
ST PAUL        CLOUDY    37  21  52 SE13      30.24F
CRYSTAL        CLOUDY    37  19  48 SE15      30.19F
BLAINE         CLOUDY    37  21  52 SE12      30.21S
LAKEVILLE      CLOUDY    36  25  64 SE10      30.20F
EDEN PRAIRIE   CLOUDY    38  21  50 SE14      30.19F
SOUTH ST PAUL  CLOUDY    37  20  50 SE8       30.23S
LAKE ELMO      CLOUDY    36  21  55 SE8       30.24F
$$
MNZ001>005-007-008-013>017-022>024-027-028-231000-
   Northwest Minnesota

CITY           SKY/WX    TMP DP  RH WIND       PRES   REMARKS
BEMIDJI        CLOUDY    34  18  53 S15       30.03F WCI  24
HALLOCK        CLOUDY    32  27  80 S16       29.93F WCI  21
ROSEAU         CLOUDY    34  23  64 S12       29.98F WCI  25
WARROAD        CLOUDY    34  21  60 S12       29.99F WCI  25
THIEF RVR FALL   N/A    N/A N/A N/A MISG        N/A
CROOKSTON      CLOUDY    34  25  69 S16       29.97F WCI  23
FOSSTON        CLOUDY    32  19  59 S14       29.99F WCI  22
DETROIT LAKES  CLOUDY    34  23  64 SE13G18   30.02F WCI  25
MOORHEAD       CLOUDY    36  25  64 S23G29    29.98F
PARK RAPIDS    CLOUDY    35  18  49 S17       30.04F WCI  25
MAHNOMEN       FAIR      33  22  62 S15G24    29.98F WCI  23
$$
MNZ006-009>011-018-025>026-231000-
   North Central Minnesota

CITY           SKY/WX    TMP DP  RH WIND       PRES   REMARKS
BAUDETTE       CLOUDY    32  18  56 S13       30.02F WCI  22
FLAG ISLAND    CLOUDY    28  23  80 S17       30.00F WCI  16
INTL FALLS     CLOUDY    31  18  58 S6        30.09F WCI  25
WASKISH        CLOUDY    34  19  55 S10       30.04F WCI  26
BIG FORK       CLOUDY    34  18  51 S14G20    30.09F WCI  24
LONGVILLE      MOCLDY    30  19  64 SE9G20    30.09F WCI  22
GRAND RAPIDS   CLOUDY    31  20  63 S21       30.11F WCI  18
CRANE LAKE     CLOUDY    27  21  80 SE3       30.17F
ORR            CLOUDY    30  16  55 SE5G20    30.09F WCI  25
COOK           CLOUDY    30  18  59 SE7       30.13F WCI  23
WALKER         CLOUDY    33  17  53 SE9G16    30.06F WCI  25
$$
MNZ012-019>021-037-231000-
   Northeast Minnesota

CITY           SKY/WX    TMP DP  RH WIND       PRES   REMARKS
DULUTH         FLURRIES  30  20  66 SE13      30.20F WCI  20
ELY            CLOUDY    27  19  74 SE12      30.17F WCI  16
HIBBING        CLOUDY    29  16  58 SE13G23   30.14F WCI  19
EVELETH        MIX PCPN  30  14  51 S9        30.18F WCI  22
DULUTH HARBOR  CLOUDY    34  25  69 CALM      30.27S
TWO HARBORS    CLOUDY    32  23  69 SE3       30.22F
SILVER BAY     FLURRIES  30  23  74 SE3       30.24F
GRAND MARAIS     N/A     30  23  75 CALM      30.30F
G MARAIS ARPRT CLOUDY    25  18  74 S6        30.23F WCI  18
$$
MNZ029>031-032-039>041-046>048-054>057-064-231000-
   West Central Minnesota

CITY           SKY/WX    TMP DP  RH WIND       PRES   REMARKS
FERGUS FALLS   CLEAR     36  23  60 S20G28    30.04F
WHEATON        CLEAR     34  25  69 SE20      30.00F WCI  22
MORRIS         PTCLDY    36  25  64 SE18      30.02F
ALEXANDRIA     CLOUDY    36  22  56 S17       30.06F
ELBOW LAKE     CLOUDY    35  23  61 SE25G32   30.01F WCI  23
WADENA         CLOUDY    34  21  60 SE14G22   30.05F WCI  24
GLENWOOD       CLOUDY    36  21  55 SE20G25   30.07F
APPLETON       CLOUDY    37  25  60 SE16G22   30.02F
BENSON         CLOUDY    39  21  48 S14       30.07F
ORTONVILLE     CLOUDY    36  25  64 SE15G21   29.99F
MADISON        CLOUDY    39  28  65 SE13      30.02F
WILLMAR        CLOUDY    37  25  60 SE17G23   30.10F
$$
MNZ033>034-036-042>043-049>051-058-059-231000-
   Central Minnesota

CITY           SKY/WX    TMP DP  RH WIND       PRES   REMARKS
ST CLOUD       CLOUDY    36  21  54 SE14      30.14F
SAUK CENTRE    CLOUDY    35  22  60 SE15      30.09F WCI  25
PAYNESVILLE      N/A     36  22  57 SE16G24   30.12F
AITKIN         CLOUDY    34  19  55 SE12G18   30.13F WCI  25
PINE RIVER     CLOUDY    34  19  55 SE15      30.12F WCI  24
BRAINERD       CLOUDY    34  18  52 S15       30.12F WCI  24
STAPLES        CLOUDY    34  18  51 S12G22    30.08F WCI  25
LONG PRAIRIE   CLOUDY    34  21  60 E14G20    30.10F WCI  24
LITTLE FALLS   CLOUDY    34  19  55 SE10G16   30.13F WCI  26
LITCHFIELD     CLOUDY    37  23  56 SE12G20   30.13F
BUFFALO        CLOUDY    37  21  53 SE12      30.17F
MAPLE LAKE     CLOUDY    37  24  60 SE14      30.16F
HUTCHINSON     CLOUDY    36  26  66 SE14      30.15F
$$
MNZ037-044-045-052-053-231000-
   East Central Minnesota

CITY           SKY/WX    TMP DP  RH WIND       PRES   REMARKS
PRINCETON      CLOUDY    37  19  48 SE10G17   30.18F
MORA           CLOUDY    32  27  80 SE9       30.21F WCI  24
CAMBRIDGE      CLOUDY    37  21  52 SE6       30.18F
RUSH CITY      CLOUDY    30  26  84 E6        30.22F WCI  24
MOOSE LAKE     CLOUDY    30  27  86 CALM      30.20F
HINCKLEY       CLOUDY    32  28  86 SE9G16    30.22F WCI  24
CLOQUET        FLURRIES  30  19  64 S15G21    30.22S WCI  19
MCGREGOR       CLOUDY    30  27  86 SE12      30.16F WCI  21
$$
MNZ071>073-080-081-089-090-097-098-231000-
   Southwest Minnesota

CITY           SKY/WX    TMP DP  RH WIND       PRES   REMARKS
MONTEVIDEO     CLOUDY    37  27  65 S14G21    30.06F
GRANITE FALLS  CLOUDY    38  28  65 SE17      30.08F
CANBY          CLOUDY    40  28  60 S14       30.02F
MARSHALL       CLOUDY    38  26  62 S17       30.04F
REDWOOD FALLS  CLOUDY    37  24  59 SE17      30.09F
OLIVIA         CLOUDY    36  27  69 SE14      30.09F
PIPESTONE      CLOUDY    37  23  56 S17       30.01F
WINDOM         CLOUDY    36  25  64 SE16G22   30.09F
WORTHINGTON    CLOUDY    37  24  59 SE15      30.07
JACKSON        CLOUDY    36  27  69 SE13G18   30.11F
TRACY          CLOUDY    38  27  64 S17G24    30.05F
SLAYTON        CLOUDY    35  26  69 SE21      30.05F WCI  24
$$
MNZ065>067-074>077-082>085-091>093-231000-
   South Central Minnesota

CITY           SKY/WX    TMP DP  RH WIND       PRES   REMARKS
MANKATO        CLOUDY    36  23  59 SE17      30.16F
NEW ULM        CLOUDY    36  23  60 S16G25    30.13F
ST JAMES       CLOUDY    36  27  69 SE17G23   30.14F
FAIRMONT       CLOUDY    36  24  62 S21       30.13F
GLENCOE        CLOUDY    37  26  64 SE10      30.15F
FARIBAULT      CLOUDY    36  25  64 SE10      30.20F
OWATONNA       CLOUDY    36  23  60 SE15G21   30.19F
WASECA         CLOUDY    36  27  69 SE16      30.19F
ALBERT LEA     CLOUDY    36  23  60 S14G21    30.19S
$$
MNZ078>079-086>088-094>096-231000-
   Southeast Minnesota

CITY           SKY/WX    TMP DP  RH WIND       PRES   REMARKS
ROCHESTER      CLOUDY    34  23  64 S20G29    30.23F WCI  23
RED WING       CLOUDY    37  18  44 SE10      30.25F
STANTON        CLOUDY    37  24  58 SE13      30.21F
DODGE CENTER   CLOUDY    34  25  69 SE18G24   30.21F WCI  23
WINONA         CLOUDY    36  21  55 SE10      30.30S
AUSTIN         CLOUDY    36  23  60 SE12G20   30.21S
PRESTON        CLOUDY    33  22  63 SE17      30.24F WCI  22
$$
ABBREVIATIONS USED IN REMARKS
   TC - TEMPERATURES IN CELSIUS
  WCI - WIND CHILL INDEX
   HX - HEAT INDEX
  VSB - VISIBILITY
$$



USA.gov is the U.S. government's official web portal to all federal, state and local government web resources and services.